Time,TemperatureF,DewpointF,PressureIn,WindDirection,WindDirectionDegrees,WindSpeedMPH,WindSpeedGustMPH,Humidity,HourlyPrecipIn,Conditions,Clouds,dailyrainin,SoftwareType,DateUTC
2013-01-28 00:02:00,-999.0,-99.9,30.16,NNW,342,19.0,37.0,-999,-99.99,,,-99.99,,2013-01-28 09:02:00,
2013-01-28 00:12:00,-999.0,-99.9,30.16,NNW,336,19.0,23.0,-999,-99.99,,,-99.99,,2013-01-28 09:12:00,
2013-01-28 00:32:00,-999.0,-99.9,30.18,NNW,340,15.0,20.0,-999,-99.99,,,-99.99,,2013-01-28 09:32:00,
2013-01-28 00:42:00,-999.0,-99.9,30.17,NNW,340,17.0,23.0,-999,-99.99,,,-99.99,,2013-01-28 09:42:00,
2013-01-28 01:02:00,-999.0,-99.9,30.17,NNW,339,19.0,23.0,-999,-99.99,,,-99.99,,2013-01-28 10:02:00,
2013-01-28 01:11:00,-999.0,-99.9,30.18,NNW,331,19.0,25.0,-999,-99.99,,,-99.99,,2013-01-28 10:11:00,
2013-01-28 01:32:00,-999.0,-99.9,30.18,NNW,331,15.0,33.0,-999,-99.99,,,-99.99,,2013-01-28 10:32:00,
2013-01-28 01:42:00,-999.0,-99.9,30.18,NNW,329,18.0,22.0,-999,-99.99,,,-99.99,,2013-01-28 10:42:00,
2013-01-28 02:02:00,-999.0,-99.9,30.19,NNW,330,19.0,23.0,-999,-99.99,,,-99.99,,2013-01-28 11:02:00,
2013-01-28 02:11:00,-999.0,-99.9,30.19,NNW,338,19.0,24.0,-999,-99.99,,,-99.99,,2013-01-28 11:11:00,
2013-01-28 02:22:00,-999.0,-99.9,30.19,NNW,337,17.0,24.0,-999,-99.99,,,-99.99,,2013-01-28 11:22:00,
2013-01-28 02:33:00,-999.0,-99.9,30.19,North,349,19.0,26.0,-999,-99.99,,,-99.99,,2013-01-28 11:33:00,
2013-01-28 02:42:00,-999.0,-99.9,30.19,NNW,336,21.0,25.0,-999,-99.99,,,-99.99,,2013-01-28 11:42:00,
2013-01-28 03:03:00,-999.0,-99.9,30.20,NNW,344,16.0,22.0,-999,-99.99,,,-99.99,,2013-01-28 12:03:00,
2013-01-28 03:12:00,-999.0,-99.9,30.20,NNW,348,14.0,19.0,-999,-99.99,,,-99.99,,2013-01-28 12:12:00,
2013-01-28 03:23:00,1.0,-99.9,30.21,North,6,11.0,18.0,-999,-99.99,,,-99.99,,2013-01-28 12:23:00,
2013-01-28 03:33:00,-999.0,-99.9,30.21,North,6,13.0,17.0,-999,-99.99,,,-99.99,,2013-01-28 12:33:00,
2013-01-28 03:42:00,-999.0,-99.9,30.20,North,-999,11.0,16.0,-999,-99.99,,,-99.99,,2013-01-28 12:42:00,
2013-01-28 03:53:00,-999.0,-99.9,30.19,ESE,114,5.0,8.0,-999,-99.99,,,-99.99,,2013-01-28 12:53:00,
2013-01-28 04:03:00,-999.0,-99.9,30.19,ESE,108,6.0,13.0,-999,-99.99,,,-99.99,,2013-01-28 13:03:00,
2013-01-28 04:12:00,-999.0,-99.9,30.19,ESE,123,4.0,9.0,-999,-99.99,,,-99.99,,2013-01-28 13:12:00,
2013-01-28 04:23:00,-7.0,-99.9,30.19,ESE,116,1.0,5.0,-999,-99.99,,,-99.99,,2013-01-28 13:23:00,
2013-01-28 04:33:00,-999.0,-99.9,30.19,NNE,29,1.0,3.0,-999,-99.99,,,-99.99,,2013-01-28 13:33:00,
2013-01-28 04:43:00,-999.0,-99.9,30.19,ENE,66,5.0,7.0,-999,-99.99,,,-99.99,,2013-01-28 13:43:00,
2013-01-28 04:53:00,-1.0,-99.9,30.19,ENE,60,9.0,13.0,-999,-99.99,,,-99.99,,2013-01-28 13:53:00,
2013-01-28 05:03:00,-999.0,-99.9,30.19,ENE,73,6.0,11.0,-999,-99.99,,,-99.99,,2013-01-28 14:03:00,
2013-01-28 05:12:00,-999.0,-99.9,30.19,NE,51,6.0,9.0,-999,-99.99,,,-99.99,,2013-01-28 14:12:00,
2013-01-28 05:23:00,-999.0,-99.9,30.19,ESE,122,9.0,12.0,-999,-99.99,,,-99.99,,2013-01-28 14:23:00,
2013-01-28 05:33:00,-999.0,-99.9,30.20,East,95,6.0,10.0,-999,-99.99,,,-99.99,,2013-01-28 14:33:00,
2013-01-28 05:43:00,-999.0,-99.9,30.19,SE,133,5.0,12.0,-999,-99.99,,,-99.99,,2013-01-28 14:43:00,
2013-01-28 05:53:00,-7.0,-99.9,30.19,SE,127,6.0,9.0,-999,-99.99,,,-99.99,,2013-01-28 14:53:00,
2013-01-28 06:03:00,-999.0,-99.9,30.20,ESE,104,2.0,9.0,-999,-99.99,,,-99.99,,2013-01-28 15:03:00,
2013-01-28 06:13:00,-999.0,-99.9,30.22,SE,146,3.0,5.0,-999,-99.99,,,-99.99,,2013-01-28 15:13:00,
2013-01-28 06:24:00,-6.0,-99.9,30.21,ESE,102,3.0,4.0,-999,-99.99,,,-99.99,,2013-01-28 15:24:00,
2013-01-28 06:33:00,-999.0,-99.9,30.21,ESE,115,4.0,5.0,-999,-99.99,,,-99.99,,2013-01-28 15:33:00,
2013-01-28 06:43:00,-999.0,-99.9,30.20,ESE,113,4.0,9.0,-999,-99.99,,,-99.99,,2013-01-28 15:43:00,
2013-01-28 06:54:00,-7.0,-99.9,30.19,ESE,102,2.0,6.0,-999,-99.99,,,-99.99,,2013-01-28 15:54:00,
2013-01-28 07:04:00,-999.0,-99.9,30.19,East,85,5.0,9.0,-999,-99.99,,,-99.99,,2013-01-28 16:04:00,
2013-01-28 07:13:00,-999.0,-99.9,30.18,East,90,2.0,6.0,-999,-99.99,,,-99.99,,2013-01-28 16:13:00,
2013-01-28 07:22:00,-999.0,-99.9,30.18,ESE,111,7.0,9.0,-999,-99.99,,,-99.99,,2013-01-28 16:22:00,
2013-01-28 07:33:00,-999.0,-99.9,30.18,ESE,108,6.0,9.0,-999,-99.99,,,-99.99,,2013-01-28 16:33:00,
2013-01-28 07:43:00,-999.0,-99.9,30.18,East,82,5.0,9.0,-999,-99.99,,,-99.99,,2013-01-28 16:43:00,
2013-01-28 07:53:00,-4.0,-99.9,30.17,ENE,75,5.0,9.0,-999,-99.99,,,-99.99,,2013-01-28 16:53:00,
2013-01-28 08:02:00,-999.0,-99.9,30.17,East,95,7.0,9.0,-999,-99.99,,,-99.99,,2013-01-28 17:02:00,
2013-01-28 08:12:00,-999.0,-99.9,30.17,East,98,7.0,9.0,-999,-99.99,,,-99.99,,2013-01-28 17:12:00,
2013-01-28 08:23:00,-7.0,-99.9,30.17,East,101,6.0,9.0,-999,-99.99,,,-99.99,,2013-01-28 17:23:00,
2013-01-28 08:33:00,-999.0,-99.9,30.18,East,95,4.0,8.0,-999,-99.99,,,-99.99,,2013-01-28 17:33:00,
2013-01-28 08:42:00,-999.0,-99.9,30.17,East,85,6.0,7.0,-999,-99.99,,,-99.99,,2013-01-28 17:42:00,
2013-01-28 08:53:00,-6.0,-99.9,30.17,East,85,2.0,6.0,-999,-99.99,,,-99.99,,2013-01-28 17:53:00,
2013-01-28 09:03:00,-999.0,-99.9,30.17,ESE,108,4.0,5.0,-999,-99.99,,,-99.99,,2013-01-28 18:03:00,
2013-01-28 09:13:00,-999.0,-99.9,30.17,East,98,4.0,5.0,-999,-99.99,,,-99.99,,2013-01-28 18:13:00,
2013-01-28 09:23:00,-7.0,-99.9,30.17,East,100,4.0,5.0,-999,-99.99,,,-99.99,,2013-01-28 18:23:00,
2013-01-28 09:33:00,-999.0,-99.9,30.17,ESE,118,5.0,7.0,-999,-99.99,,,-99.99,,2013-01-28 18:33:00,
2013-01-28 09:43:00,-999.0,-99.9,30.17,SE,146,4.0,6.0,-999,-99.99,,,-99.99,,2013-01-28 18:43:00,
2013-01-28 09:53:00,-8.0,-99.9,30.18,SSE,149,3.0,6.0,-999,-99.99,,,-99.99,,2013-01-28 18:53:00,
2013-01-28 10:13:00,-6.0,-99.9,30.16,ESE,107,4.0,5.0,-999,-99.99,,,-99.99,,2013-01-28 19:13:00,
2013-01-28 10:23:00,-999.0,-99.9,30.17,SE,127,2.0,5.0,-999,-99.99,,,-99.99,,2013-01-28 19:23:00,
2013-01-28 10:33:00,-999.0,-99.9,30.17,SE,130,1.0,2.0,-999,-99.99,,,-99.99,,2013-01-28 19:33:00,
2013-01-28 10:43:00,-999.0,-99.9,30.16,ESE,106,2.0,4.0,-999,-99.99,,,-99.99,,2013-01-28 19:43:00,
2013-01-28 10:53:00,-5.0,-99.9,30.16,NE,52,0.0,2.0,-999,-99.99,,,-99.99,,2013-01-28 19:53:00,
2013-01-28 11:03:00,-999.0,-99.9,30.16,ESE,118,3.0,5.0,-999,-99.99,,,-99.99,,2013-01-28 20:03:00,
2013-01-28 11:12:00,-999.0,-99.9,30.16,East,99,4.0,7.0,-999,-99.99,,,-99.99,,2013-01-28 20:12:00,
2013-01-28 11:22:00,-3.0,-99.9,30.16,East,97,5.0,7.0,-999,-99.99,,,-99.99,,2013-01-28 20:22:00,
2013-01-28 11:33:00,-999.0,-99.9,30.16,East,95,3.0,8.0,-999,-99.99,,,-99.99,,2013-01-28 20:33:00,
2013-01-28 11:43:00,-999.0,-99.9,30.16,ENE,61,3.0,7.0,-999,-99.99,,,-99.99,,2013-01-28 20:43:00,
2013-01-28 11:53:00,-999.0,-99.9,30.15,ESE,108,4.0,6.0,-999,-99.99,,,-99.99,,2013-01-28 20:53:00,
2013-01-28 12:03:00,-999.0,-99.9,30.15,ESE,108,4.0,6.0,-999,-99.99,,,-99.99,,2013-01-28 21:03:00,
2013-01-28 12:12:00,-999.0,-99.9,30.14,ESE,107,5.0,8.0,-999,-99.99,,,-99.99,,2013-01-28 21:12:00,
2013-01-28 12:23:00,-2.0,-99.9,30.14,ESE,103,4.0,8.0,-999,-99.99,,,-99.99,,2013-01-28 21:23:00,
2013-01-28 12:34:00,-999.0,-99.9,30.14,ESE,103,5.0,8.0,-999,-99.99,,,-99.99,,2013-01-28 21:34:00,
2013-01-28 12:43:00,-999.0,-99.9,30.14,ESE,105,4.0,5.0,-999,-99.99,,,-99.99,,2013-01-28 21:43:00,
2013-01-28 13:02:00,-999.0,-99.9,30.12,East,94,5.0,7.0,-999,-99.99,,,-99.99,,2013-01-28 22:02:00,
2013-01-28 13:12:00,-999.0,-99.9,30.12,East,86,6.0,9.0,-999,-99.99,,,-99.99,,2013-01-28 22:12:00,
2013-01-28 13:23:00,-999.0,-99.9,30.11,ENE,73,4.0,6.0,-999,-99.99,,,-99.99,,2013-01-28 22:23:00,
2013-01-28 13:33:00,-999.0,-99.9,30.11,East,91,3.0,6.0,-999,-99.99,,,-99.99,,2013-01-28 22:33:00,
2013-01-28 13:43:00,-999.0,-99.9,30.11,East,79,5.0,7.0,-999,-99.99,,,-99.99,,2013-01-28 22:43:00,
2013-01-28 13:53:00,2.0,-99.9,30.11,East,95,3.0,5.0,-999,-99.99,,,-99.99,,2013-01-28 22:53:00,
2013-01-28 14:03:00,-999.0,-99.9,30.11,ESE,113,7.0,11.0,-999,-99.99,,,-99.99,,2013-01-28 23:03:00,
2013-01-28 14:12:00,-999.0,-99.9,30.10,East,92,6.0,9.0,-999,-99.99,,,-99.99,,2013-01-28 23:12:00,
2013-01-28 14:22:00,3.0,-99.9,30.11,East,97,4.0,7.0,-999,-99.99,,,-99.99,,2013-01-28 23:22:00,
2013-01-28 14:33:00,-999.0,-99.9,30.09,ENE,63,4.0,8.0,-999,-99.99,,,-99.99,,2013-01-28 23:33:00,
2013-01-28 14:42:00,-999.0,-99.9,30.08,NNE,28,9.0,18.0,-999,-99.99,,,-99.99,,2013-01-28 23:42:00,
2013-01-28 14:53:00,-999.0,-99.9,30.08,NNE,31,8.0,21.0,-999,-99.99,,,-99.99,,2013-01-28 23:53:00,
2013-01-28 15:03:00,-999.0,-99.9,30.07,NE,38,11.0,19.0,-999,-99.99,,,-99.99,,2013-01-29 00:03:00,
2013-01-28 15:12:00,-999.0,-99.9,30.06,North,10,18.0,24.0,-999,-99.99,,,-99.99,,2013-01-29 00:12:00,
2013-01-28 15:22:00,9.0,-99.9,30.06,NNE,18,12.0,20.0,-999,-99.99,,,-99.99,,2013-01-29 00:22:00,
2013-01-28 15:33:00,-999.0,-99.9,30.04,NNE,23,8.0,22.0,-999,-99.99,,,-99.99,,2013-01-29 00:33:00,
2013-01-28 15:42:00,-999.0,-99.9,30.04,North,3,18.0,23.0,-999,-99.99,,,-99.99,,2013-01-29 00:42:00,
2013-01-28 15:52:00,9.0,-99.9,30.05,North,8,18.0,25.0,-999,-99.99,,,-99.99,,2013-01-29 00:52:00,
2013-01-28 16:02:00,-999.0,-99.9,30.04,North,10,16.0,22.0,-999,-99.99,,,-99.99,,2013-01-29 01:02:00,
2013-01-28 16:12:00,-999.0,-99.9,30.04,North,10,13.0,20.0,-999,-99.99,,,-99.99,,2013-01-29 01:12:00,
2013-01-28 16:23:00,9.0,-99.9,30.03,NNE,15,14.0,20.0,-999,-99.99,,,-99.99,,2013-01-29 01:23:00,
2013-01-28 16:32:00,-999.0,-99.9,30.02,North,4,18.0,56.0,-999,-99.99,,,-99.99,,2013-01-29 01:32:00,
2013-01-28 16:42:00,-999.0,-99.9,30.02,North,3,17.0,23.0,-999,-99.99,,,-99.99,,2013-01-29 01:42:00,
2013-01-28 16:53:00,8.0,-99.9,30.02,North,358,16.0,21.0,-999,-99.99,,,-99.99,,2013-01-29 01:53:00,
2013-01-28 17:02:00,-999.0,-99.9,30.01,North,3,20.0,24.0,-999,-99.99,,,-99.99,,2013-01-29 02:02:00,
2013-01-28 17:12:00,-999.0,-99.9,30.01,North,8,15.0,23.0,-999,-99.99,,,-99.99,,2013-01-29 02:12:00,
2013-01-28 17:22:00,8.0,-99.9,30.01,North,7,16.0,21.0,-999,-99.99,,,-99.99,,2013-01-29 02:22:00,
2013-01-28 17:33:00,-999.0,-99.9,30.01,NNE,15,10.0,19.0,-999,-99.99,,,-99.99,,2013-01-29 02:33:00,
2013-01-28 17:42:00,-999.0,-99.9,30.02,North,3,17.0,20.0,-999,-99.99,,,-99.99,,2013-01-29 02:42:00,
2013-01-28 17:53:00,9.0,-99.9,30.02,North,359,17.0,21.0,-999,-99.99,,,-99.99,,2013-01-29 02:53:00,
2013-01-28 18:03:00,-999.0,-99.9,30.01,North,6,18.0,22.0,-999,-99.99,,,-99.99,,2013-01-29 03:03:00,
2013-01-28 18:12:00,-999.0,-99.9,30.02,North,2,19.0,24.0,-999,-99.99,,,-99.99,,2013-01-29 03:12:00,
2013-01-28 18:22:00,9.0,-99.9,30.03,North,357,17.0,22.0,-999,-99.99,,,-99.99,,2013-01-29 03:22:00,
2013-01-28 18:32:00,-999.0,-99.9,30.04,NNW,343,16.0,23.0,-999,-99.99,,,-99.99,,2013-01-29 03:32:00,
2013-01-28 18:42:00,-999.0,-99.9,30.04,NNW,341,14.0,18.0,-999,-99.99,,,-99.99,,2013-01-29 03:42:00,
2013-01-28 18:53:00,9.0,-99.9,30.05,North,359,16.0,21.0,-999,-99.99,,,-99.99,,2013-01-29 03:53:00,
2013-01-28 19:03:00,-999.0,-99.9,30.06,North,5,14.0,20.0,-999,-99.99,,,-99.99,,2013-01-29 04:03:00,
2013-01-28 19:12:00,-999.0,-99.9,30.05,North,360,15.0,19.0,-999,-99.99,,,-99.99,,2013-01-29 04:12:00,
2013-01-28 19:22:00,9.0,-99.9,30.05,North,357,16.0,21.0,-999,-99.99,,,-99.99,,2013-01-29 04:22:00,
2013-01-28 19:32:00,-999.0,-99.9,30.05,NNE,12,15.0,21.0,-999,-99.99,,,-99.99,,2013-01-29 04:32:00,
2013-01-28 19:42:00,-999.0,-99.9,30.03,North,11,17.0,58.0,-999,-99.99,,,-99.99,,2013-01-29 04:42:00,
2013-01-28 19:52:00,-999.0,-99.9,30.02,North,9,19.0,23.0,-999,-99.99,,,-99.99,,2013-01-29 04:52:00,
2013-01-28 20:04:00,-999.0,-99.9,30.02,NNE,17,16.0,23.0,-999,-99.99,,,-99.99,,2013-01-29 05:04:00,
2013-01-28 20:12:00,-999.0,-99.9,30.01,NNE,21,14.0,23.0,-999,-99.99,,,-99.99,,2013-01-29 05:12:00,
2013-01-28 20:22:00,8.0,-99.9,30.00,NNE,30,13.0,22.0,-999,-99.99,,,-99.99,,2013-01-29 05:22:00,
2013-01-28 20:32:00,-999.0,-99.9,29.99,NNE,32,14.0,21.0,-999,-99.99,,,-99.99,,2013-01-29 05:32:00,
2013-01-28 20:43:00,-999.0,-99.9,29.98,NNE,31,14.0,20.0,-999,-99.99,,,-99.99,,2013-01-29 05:43:00,
2013-01-28 20:52:00,7.0,-99.9,29.98,NNE,31,15.0,25.0,-999,-99.99,,,-99.99,,2013-01-29 05:52:00,
2013-01-28 21:02:00,-999.0,-99.9,29.97,NNE,28,16.0,22.0,-999,-99.99,,,-99.99,,2013-01-29 06:02:00,
2013-01-28 21:11:00,-999.0,-99.9,29.96,NNE,21,17.0,23.0,-999,-99.99,,,-99.99,,2013-01-29 06:11:00,
2013-01-28 21:22:00,7.0,-99.9,29.96,NNE,24,16.0,23.0,-999,-99.99,,,-99.99,,2013-01-29 06:22:00,
2013-01-28 21:32:00,-999.0,-99.9,29.95,NNE,17,18.0,26.0,-999,-99.99,,,-99.99,,2013-01-29 06:32:00,
2013-01-28 21:42:00,-999.0,-99.9,29.95,NNE,31,13.0,25.0,-999,-99.99,,,-99.99,,2013-01-29 06:42:00,
2013-01-28 21:52:00,8.0,-99.9,29.95,NNE,26,11.0,17.0,-999,-99.99,,,-99.99,,2013-01-29 06:52:00,
2013-01-28 22:02:00,-999.0,-99.9,29.94,NNE,31,18.0,23.0,-999,-99.99,,,-99.99,,2013-01-29 07:02:00,
2013-01-28 22:11:00,-999.0,-99.9,29.94,NNE,26,16.0,24.0,-999,-99.99,,,-99.99,,2013-01-29 07:11:00,
2013-01-28 22:21:00,7.0,-99.9,29.93,NNE,22,19.0,27.0,-999,-99.99,,,-99.99,,2013-01-29 07:21:00,
2013-01-28 22:32:00,-999.0,-99.9,29.93,NNE,29,12.0,22.0,-999,-99.99,,,-99.99,,2013-01-29 07:32:00,
2013-01-28 22:42:00,-999.0,-99.9,29.93,NNE,22,18.0,30.0,-999,-99.99,,,-99.99,,2013-01-29 07:42:00,
2013-01-28 22:52:00,-999.0,-99.9,29.92,North,7,20.0,25.0,-999,-99.99,,,-99.99,,2013-01-29 07:52:00,
2013-01-28 23:02:00,-999.0,-99.9,29.92,North,9,19.0,24.0,-999,-99.99,,,-99.99,,2013-01-29 08:02:00,
2013-01-28 23:11:00,-999.0,-99.9,29.91,NNE,12,19.0,24.0,-999,-99.99,,,-99.99,,2013-01-29 08:11:00,
2013-01-28 23:21:00,8.0,-99.9,29.91,North,4,21.0,26.0,-999,-99.99,,,-99.99,,2013-01-29 08:21:00,
2013-01-28 23:32:00,-999.0,-99.9,29.91,North,11,19.0,24.0,-999,-99.99,,,-99.99,,2013-01-29 08:32:00,
2013-01-28 23:42:00,-999.0,-99.9,29.91,NNE,26,12.0,20.0,-999,-99.99,,,-99.99,,2013-01-29 08:42:00,
2013-01-28 23:52:00,7.0,-99.9,29.91,NNE,26,14.0,21.0,-999,-99.99,,,-99.99,,2013-01-29 08:52:00,